www.pogodaiklimat.ru

Погода и климат >> Архив погоды >> Иран >> Бендер-Аббас


ПОГОДА в Бендер-Аббасе

  • Прогноз погоды в Бендер-Аббасе
  • Монитор погоды в Бендер-Аббасе

АРХИВ ПОГОДЫ в Бендер-Аббасе

Время (UTC), дата Ветер
(напр.,м/с)
 
Видим.   Явления Облачность Т
(С)
Тd
(С)
f
(%)
Тe
(С)
Тes
(С)
Комфортность P
(гПа)
Po
(гПа)
Тmin
(С)
Tmax
(С)
R
(мм)
R24
(мм)
S
(см)
21 17.05 В 2 5000 м мгла 1/0
[Ci fib]
+28.7 +22.4 69 +38 +38 очень
душно
1007.6 1006.5
00 18.05 С 3 5000 м мгла 4/0
[Ci sp]
+27.6 +22.3 73 +36 +36 очень
душно
1007.7 1006.6
03 18.05 С 4 5000 м мгла 6/0
[Cs]
+29.1 +22.8 69 +39 +40 очень
душно
1008.3 1007.2 +27.0
06 18.05 ЮВ 3 4000 м мгла 5/0
[Cs]
+32.7 +25.1 64 +46 +58 опасность
перегрева
1008.7 1007.6
09 18.05 Ю 5 4000 м мгла 3/1 900 м
[Cu hum Ci fib]
+33.0 +22.3 53 +42 +52 опасность
перегрева
1008.1 1007.0
12 18.05 Ю 3 8000 м мгла 5/4 750 м
[Cu med, cong Ci fib]
+33.1 +23.2 56 +44 +48 опасность
перегрева
1006.0 1004.9
15 18.05 ЮВ 4 8000 м мгла 6/1 900 м
[Cu hum Cs]
+30.7 +24.0 68 +43 +43 опасность
перегрева
1005.1 1004.0 +35.3 666
18 18.05 ЮВ 2 8000 м мгла 4/0
[Cs]
+30.0 +23.5 68 +41 +41 опасность
перегрева
1007.8 1006.7
21 18.05 С 3 7000 м мгла 6/0
[Cs]
+28.4 +23.2 73 +38 +38 очень
душно
1007.4 1006.3
00 19.05 СВ 2 7000 м мгла 9/0
[Cs]
+28.3 +22.0 69 +37 +37 очень
душно
1007.0 1005.9
03 19.05 С 2 8000 м мгла 8/0
[Ac As]
+28.7 +22.1 68 +37 +38 очень
душно
1008.4 1007.3 +27.1 666
06 19.05 В 2 6000 м мгла 5/0
[Ci sp]
+32.5 +23.3 58 +43 +58 опасность
перегрева
1009.6 1008.5
09 19.05 Ю 4 5000 м мгла 8/1 600 м
[Cu hum Cs]
+32.6 +25.3 66 +47 +58 опасность
перегрева
1008.2 1007.1 666
12 19.05 Ю 5 5000 м мгла 8/1 750 м
[Cu med, cong Cs]
+33.1 +24.0 59 +45 +48 опасность
перегрева
1006.4 1005.3
15 19.05 ЮВ 2 5000 м мгла 4/3 900 м
[Sc Ci fib]
+31.6 +21.6 55 +40 +40 очень
душно
1006.4 1005.3 +33.5
18 19.05 СВ 5 5000 м мгла 3/0
[Ci sp]
+31.1 +15.1 38 +33 +33 душно 1008.0 1006.9
21 19.05 Ю 3 6000 м зарница 4/1 900 м
[Cb cap Ci sp]
+29.2 +25.1 79 +42 +42 опасность
перегрева
1009.1 1008.0
00 20.05 СВ 5 6000 м мгла 4/0
[Ci sp]
+28.5 +23.4 74 +39 +39 очень
душно
1008.6 1007.5
03 20.05 СВ 3 7000 м мгла 6/4 900 м
[Sc diur, vesp Ci sp]
+28.8 +23.5 73 +39 +40 очень
душно
1009.8 1008.7 +27.7
06 20.05 В 3 10 км 4/4 900 м
[Sc diur, vesp]
+32.5 +23.2 58 +43 +51 опасность
перегрева
1010.4 1009.3
09 20.05 Ю 6 10 км 3/1 900 м
[Sc diur, vesp Ci fib]
+34.1 +25.0 59 +48 +55 опасность
перегрева
1008.8 1007.7
12 20.05 Ю 6 6000 м мгла 3/1 900 м
[Cu hum Ci fib]
+35.1 +21.4 45 +43 +46 опасность
перегрева
1006.4 1005.3
15 20.05 Ю 5 6000 м мгла 4/0
[Ci sp]
+30.8 +25.3 73 +45 +45 опасность
перегрева
1006.4 1005.3 +35.1
18 20.05 Ю 5 5000 м мгла 1/0
[Ci fib]
+31.2 +22.3 59 +40 +40 очень
душно
1007.4 1006.3
21 20.05 ЮВ 2 5000 м мгла ясно +29.2 +23.0 69 +39 +39 очень
душно
1008.1 1007.0
00 21.05 С 3 5000 м мгла 1/0
[Ci fib]
+28.4 +23.8 76 +39 +39 очень
душно
1007.6 1006.5
03 21.05 В 2 5000 м мгла 5/3 900 м
[Sc Ci sp]
+29.8 +23.8 70 +41 +42 опасность
перегрева
1008.5 1007.4 +28.0
06 21.05 Ю 3 6000 м мгла 8/3 900 м
[Sc Cs]
+31.8 +24.8 67 +45 +53 опасность
перегрева
1009.5 1008.4 0.0
09 21.05 Ю 5 6000 м мгла 8/4 900 м
[Sc Cs]
+31.8 +25.4 69 +46 +52 опасность
перегрева
1009.1 1008.0
12 21.05 ЮЗ 5 4500 м мгла 8/1 900 м
[Sc diur, vesp Cs]
+33.7 +24.2 58 +46 +50 опасность
перегрева
1006.9 1005.9
15 21.05 ЮЗ 5 4000 м мгла 6/3 900 м
[Sc Cs]
+32.2 +21.7 54 +41 +41 опасность
перегрева
1006.8 1005.7 +35.2
18 21.05 ЮЗ 6 4000 м мгла 4/0
[Cs]
+30.0 +24.0 70 +41 +41 опасность
перегрева
1008.1 1007.0
21 21.05 ЮЗ 3 4000 м мгла 4/0
[Ci sp]
+29.0 +24.6 77 +41 +41 опасность
перегрева
1008.1 1007.0 80
00 22.05 Ю 3 4000 м дымка 3/3 900 м
[Sc]
+27.9 +25.4 86 +41 +41 опасность
перегрева
1007.7 1006.6
03 22.05 СВ 2 4000 м дымка 5/4 750 м
[Sc Ci fib]
+28.1 +25.1 84 +41 +42 опасность
перегрева
1008.3 1007.2 +27.4
06 22.05 ЮЗ 5 3500 м мгла 5/5 750 м
[Sc]
+30.9 +25.3 72 +45 +49 опасность
перегрева
1008.9 1007.8
09 22.05 Ю 9 4000 м мгла 4/3 900 м
[Sc Ci fib]
+31.8 +25.2 68 +46 +47 опасность
перегрева
1007.3 1006.3 666
12 22.05 Ю 9 4000 м пыльный позёмок 3/3 750 м
[Sc diur, vesp]
+31.5 +25.2 69 +45 +46 опасность
перегрева
1005.4 1004.3
15 22.05 Ю 5 4000 м мгла 4/0
[Ci sp]
+29.3 +24.5 75 +41 +41 опасность
перегрева
1005.4 1004.3 +32.3
18 22.05 ЮВ 2 5000 м мгла ясно +28.5 +24.4 79 +40 +40 очень
душно
1006.0 1004.9
21 22.05 С 4 4000 м мгла ясно +27.5 +23.3 78 +37 +37 очень
душно
1005.5 1004.4
00 23.05 С 3 4000 м мгла ясно +26.6 +22.2 77 +35 +35 очень
душно
1005.2 1004.1
03 23.05 С 2 3500 м мгла ясно +27.9 +22.3 72 +37 +39 очень
душно
1006.2 1005.1 +25.9
06 23.05 В 4 3500 м мгла ясно +32.2 +23.3 59 +43 +54 опасность
перегрева
1007.2 1006.1
09 23.05 Ю 5 4000 м мгла ясно +33.2 +24.3 60 +46 +57 опасность
перегрева
1005.9 1004.8
12 23.05 ЮЗ 6 4000 м мгла ясно +34.1 +24.7 58 +47 +50 опасность
перегрева
1004.5 1003.4
15 23.05 ЮЗ 3 4000 м мгла ясно +34.0 +22.3 51 +43 +43 опасность
перегрева
1004.7 1003.6 +35.2 666
18 23.05 ЮЗ 4 4000 м мгла ясно +31.9 +21.5 54 +40 +40 очень
душно
1005.6 1004.5
21 23.05 Ю 3 3500 м дымка ясно +28.4 +25.0 82 +41 +41 опасность
перегрева
1005.8 1004.7
00 24.05 С 2 3500 м дымка ясно +27.4 +24.4 84 +39 +39 очень
душно
1006.0 1004.9
03 24.05 С 2 4000 м мгла ясно +28.6 +23.4 73 +39 +41 очень
душно
1006.9 1005.8 +26.3
06 24.05 нст 1 4500 м мгла ясно +37.3 +18.7 34 +42 +61 опасность
перегрева
1008.3 1007.2
09 24.05 ЮЗ 5 5000 м мгла ясно +36.6 +20.2 38 +42 +53 опасность
перегрева
1007.6 1006.5
12 24.05 ЮЗ 5 5000 м мгла ясно +36.5 +22.3 44 +45 +50 опасность
перегрева
1005.9 1004.9
15 24.05 ЮЗ 5 5000 м мгла ясно +34.7 +21.8 47 +43 +43 опасность
перегрева
1006.1 1005.0 +38.3
18 24.05 ЮЗ 3 4000 м дымка ясно +29.8 +26.5 83 +46 +46 опасность
перегрева
1008.0 1006.9

 

Местоположение метеостанции Бендер-Аббас (Иран): широта 27.22 долгота 56.37 высота над уровнем моря 10 м.

В архиве по умолчанию представлена погода в Бендер-Аббасе за последнюю неделю. Архивные данные за месяц целиком и за предыдущие месяцы, начиная с января 2011 года, Вы можете получить, выбрав интересующий диапазон дат из раскрывающегося списка и нажав кнопку "Ввод!".


*Определитесь, кто Вы:
робот инопланетянин человек

Внимание! Время в таблицах - всемирное. Для получения местного времени необходимо прибавить поправку, которая равна 3.5 ч.

Смотрите также архив погоды в соседних городах и на ближайших метеорологических станциях:

Погода в Эль-Хасабе (Оман) (113 км)
Погода в Эль-Хасаб аэропорту (Оман) (118 км)
Погода в Кехнудже (Иран) (155 км)
Погода в Бендер-Ленге (Иран) (169 км)
Погода в Дибе (Оман) (178 км)
Погода в Рай-эль-Хайма аэропорту (ОАЭ) (183 км)
Погода на Острове Абу-Муса (Иран) (218 км)
Погода в Бафте (Иран) (224 км)
Погода в Джаске (Иран) (225 км)
Погода в Шардже (ОАЭ) (227 км)

Пояснения к столбцам:

Ветер - указаны скорость ветра в м/с - средняя за 10 мин, порывы в срок и между сроками (в фигурных скобках) и направление, откуда дует ветер: С - северный, СВ - северо-восточный, В - восточный, ЮВ - юго-восточный, Ю - южный, ЮЗ - юго-западный, З - западный, СЗ - северо-западный.
Видимость - горизонтальная дальность видимости в метрах или километрах. При видимости от 1 до 10 км при отсутствии осадков обычно наблюдается дымка, при ухудшении видимости до 1 км и менее - туман. В сухую погоду видимость может ухудшаться дымом, пылью или мглою.
Явления - указаны атмосферные явления, наблюдавшиеся в срок или в последний час перед сроком; фигурными скобками обозначены явления, наблюдавшиеся между сроками (за 1-3 часа до срока); квадратными скобками обозначены град или гололедные отложения с указанием их диаметра в мм.
Облачность - указаны через наклонную черту общая и нижняя облачность в баллах и высота нижней границы облаков в метрах; квадратными скобками обозначены формы облаков: Ci - перистые, Cs - перисто-слоистые, Cc - перисто-кучевые, Ac - высококучевые, As - высокослоистые, Sc - слоисто-кучевые, Ns - слоисто-дождевые, Cu - кучевые, Cb - кучево-дождевые. Подробнее классификацию облаков см. в Атласе облаков (PDF).
T - Температура воздуха - температура, измеренная на высоте 2 м над землей.
Td - Температура точки росы - температура, при понижении до которой содержащийся в воздухе водяной пар достигнет насыщения.
f - Относительная влажность воздуха - влажноcть воздуха, измеренная на высоте 2 м над землей.
Te - Эффективная температура - температура, которую ощущает одетый по сезону человек в тени. Характеристика душности погоды. При расчете учитывается влияние влажности воздуха и скорости ветра на теплоощущения человека.
Tes - Эффективная температура на солнце - температура, которую ощущает человек, с поправкой на солнечный нагрев. Характеристика знойности погоды. Зависит от высоты солнца над горизонтом, облачности и скорости ветра. Ночью, в пасмурную погоду, а также при ветре 12 м/с и более поправка равна нулю.
P - Атмосферное давление - приведенное к уровню моря атмосферное давление.
Po - Атмосферное давление - измеренное на уровне метеостанции атмосферное давление.
Tmin - Минимальная температура - минимум температуры воздуха на высоте 2 м над землей.
Tmax - Максимальная температура - максимум температуры воздуха на высоте 2 м над землей.
R - Количество осадков - Количество выпавших осадков за период времени, мм. При наведении курсора мыши на число - период времени, за который выпало указанное количество осадков.
R24 - Количество осадков - Количество выпавших осадков за 24 часа, мм.
S - Снежный покров - Высота снежного покрова, см. При наведении курсора мыши на число - состояние снежного покрова и степень покрытия местности в баллах.